Time,TemperatureF,DewpointF,PressureIn,WindDirection,WindDirectionDegrees,WindSpeedMPH,WindSpeedGustMPH,Humidity,HourlyPrecipIn,Conditions,Clouds,dailyrainin,SoftwareType,DateUTC
2013-11-21 00:00:00,38.2,31.0,30.23,East,98,0.0,7.0,75,0.00,,,0.00,Wunderground v.1.15,2013-11-21 05:00:00,
2013-11-21 00:05:00,38.2,31.0,30.23,SE,146,0.0,7.0,75,0.00,,,0.00,Wunderground v.1.15,2013-11-21 05:05:00,
2013-11-21 00:10:00,38.3,31.1,30.23,SE,126,1.0,7.0,75,0.00,,,0.00,Wunderground v.1.15,2013-11-21 05:10:00,
2013-11-21 00:15:00,38.4,30.8,30.23,SSE,150,1.0,7.0,74,0.00,,,0.00,Wunderground v.1.15,2013-11-21 05:15:00,
2013-11-21 00:20:00,38.4,30.8,30.23,ESE,118,1.0,7.0,74,0.00,,,0.00,Wunderground v.1.15,2013-11-21 05:20:00,
2013-11-21 00:25:00,38.4,30.8,30.23,ESE,118,1.0,7.0,74,0.00,,,0.00,Wunderground v.1.15,2013-11-21 05:25:00,
2013-11-21 00:30:00,38.5,30.9,30.23,ESE,118,0.0,7.0,74,0.00,,,0.00,Wunderground v.1.15,2013-11-21 05:30:00,
2013-11-21 00:35:00,38.5,30.9,30.23,ESE,118,0.0,7.0,74,0.00,,,0.00,Wunderground v.1.15,2013-11-21 05:35:00,
2013-11-21 03:00:00,37.9,33.8,30.25,WSW,246,0.0,5.0,85,0.00,,,0.01,Wunderground v.1.15,2013-11-21 08:00:00,
2013-11-21 03:05:00,37.8,34.0,30.25,WSW,246,0.0,5.0,86,0.00,,,0.01,Wunderground v.1.15,2013-11-21 08:05:00,
2013-11-21 03:15:00,37.5,34.3,30.24,WSW,246,0.0,5.0,88,0.00,,,0.01,Wunderground v.1.15,2013-11-21 08:15:00,
2013-11-21 03:20:00,37.3,34.4,30.24,WSW,246,0.0,5.0,89,0.00,,,0.02,Wunderground v.1.15,2013-11-21 08:20:00,
2013-11-21 03:25:00,37.2,34.5,30.24,WSW,246,0.0,5.0,90,0.00,,,0.02,Wunderground v.1.15,2013-11-21 08:25:00,
2013-11-21 03:30:00,37.1,34.7,30.24,WSW,246,0.0,5.0,91,0.00,,,0.02,Wunderground v.1.15,2013-11-21 08:30:00,
2013-11-21 03:35:00,36.9,34.5,30.24,WSW,246,0.0,5.0,91,0.00,,,0.02,Wunderground v.1.15,2013-11-21 08:35:00,
2013-11-21 03:45:00,36.8,34.7,30.23,WSW,246,0.0,5.0,92,0.00,,,0.02,Wunderground v.1.15,2013-11-21 08:45:00,
2013-11-21 03:50:00,36.7,34.9,30.23,WSW,246,0.0,5.0,93,0.00,,,0.02,Wunderground v.1.15,2013-11-21 08:50:00,
2013-11-21 03:55:00,36.7,34.9,30.23,WSW,246,0.0,5.0,93,0.00,,,0.02,Wunderground v.1.15,2013-11-21 08:55:00,
2013-11-21 04:00:00,36.7,34.9,30.23,WSW,246,0.0,1.0,93,0.00,,,0.02,Wunderground v.1.15,2013-11-21 09:00:00,
2013-11-21 04:10:00,36.8,35.2,30.23,WSW,246,0.0,1.0,94,0.00,,,0.02,Wunderground v.1.15,2013-11-21 09:10:00,
2013-11-21 04:20:00,36.9,35.3,30.22,WSW,246,0.0,1.0,94,0.00,,,0.02,Wunderground v.1.15,2013-11-21 09:20:00,
2013-11-21 04:25:00,36.9,35.3,30.22,WSW,246,0.0,1.0,94,0.00,,,0.02,Wunderground v.1.15,2013-11-21 09:25:00,
2013-11-21 04:30:00,37.0,35.4,30.22,WSW,246,0.0,1.0,94,0.00,,,0.02,Wunderground v.1.15,2013-11-21 09:30:00,
2013-11-21 04:35:00,37.1,35.5,30.22,WSW,246,0.0,1.0,94,0.00,,,0.02,Wunderground v.1.15,2013-11-21 09:35:00,
2013-11-21 04:40:00,37.2,35.9,30.22,WSW,246,0.0,1.0,95,0.00,,,0.02,Wunderground v.1.15,2013-11-21 09:40:00,
2013-11-21 04:45:00,37.3,36.0,30.22,WSW,246,0.0,1.0,95,0.00,,,0.02,Wunderground v.1.15,2013-11-21 09:45:00,
2013-11-21 04:55:00,37.5,35.9,30.21,WSW,246,0.0,1.0,94,0.00,,,0.02,Wunderground v.1.15,2013-11-21 09:55:00,
2013-11-21 05:00:00,37.5,35.9,30.20,East,86,0.0,2.0,94,0.00,,,0.02,Wunderground v.1.15,2013-11-21 10:00:00,
2013-11-21 05:10:00,37.7,36.1,30.20,East,85,0.0,2.0,94,0.00,,,0.02,Wunderground v.1.15,2013-11-21 10:10:00,
2013-11-21 05:15:00,37.7,36.1,30.20,East,85,0.0,2.0,94,0.00,,,0.02,Wunderground v.1.15,2013-11-21 10:15:00,
2013-11-21 05:20:00,37.8,36.2,30.20,East,85,0.0,2.0,94,0.00,,,0.02,Wunderground v.1.15,2013-11-21 10:20:00,
2013-11-21 05:25:00,37.8,36.2,30.20,East,85,0.0,2.0,94,0.00,,,0.02,Wunderground v.1.15,2013-11-21 10:25:00,
2013-11-21 05:35:00,37.9,36.3,30.19,East,85,0.0,2.0,94,0.00,,,0.02,Wunderground v.1.15,2013-11-21 10:35:00,
2013-11-21 05:40:00,38.0,36.4,30.19,East,82,0.0,2.0,94,0.00,,,0.02,Wunderground v.1.15,2013-11-21 10:40:00,
2013-11-21 05:45:00,38.0,36.4,30.19,ENE,75,1.0,2.0,94,0.00,,,0.02,Wunderground v.1.15,2013-11-21 10:45:00,
2013-11-21 05:50:00,38.1,36.5,30.19,SSE,161,1.0,2.0,94,0.00,,,0.02,Wunderground v.1.15,2013-11-21 10:50:00,
2013-11-21 05:55:00,38.2,36.6,30.19,ESE,110,1.0,2.0,94,0.00,,,0.02,Wunderground v.1.15,2013-11-21 10:55:00,
2013-11-21 06:00:00,38.2,36.6,30.19,ESE,110,1.0,3.0,94,0.00,,,0.02,Wunderground v.1.15,2013-11-21 11:00:00,
2013-11-21 06:10:00,38.3,36.5,30.19,SE,146,1.0,1.0,93,0.00,,,0.02,Wunderground v.1.15,2013-11-21 11:10:00,
2013-11-21 06:15:00,38.3,36.5,30.19,SE,138,1.0,2.0,93,0.00,,,0.02,Wunderground v.1.15,2013-11-21 11:15:00,
2013-11-21 06:20:00,38.4,36.6,30.18,ESE,120,1.0,1.0,93,0.00,,,0.02,Wunderground v.1.15,2013-11-21 11:20:00,
2013-11-21 06:25:00,38.4,36.3,30.18,East,84,1.0,2.0,92,0.00,,,0.02,Wunderground v.1.15,2013-11-21 11:25:00,
2013-11-21 06:35:00,38.6,35.9,30.18,East,96,1.0,2.0,90,0.00,,,0.02,Wunderground v.1.15,2013-11-21 11:35:00,
2013-11-21 06:40:00,38.9,35.9,30.18,ENE,57,1.0,1.0,89,0.00,,,0.02,Wunderground v.1.15,2013-11-21 11:40:00,
2013-11-21 06:45:00,39.0,36.0,30.18,ESE,109,1.0,2.0,89,0.00,,,0.02,Wunderground v.1.15,2013-11-21 11:45:00,
2013-11-21 06:55:00,39.2,35.7,30.18,ESE,110,1.0,2.0,87,0.00,,,0.02,Wunderground v.1.15,2013-11-21 11:55:00,
2013-11-21 07:00:00,39.2,35.7,30.18,ESE,121,1.0,5.0,87,0.00,,,0.02,Wunderground v.1.15,2013-11-21 12:00:00,
2013-11-21 07:10:00,39.4,35.9,30.18,East,94,1.0,5.0,87,0.00,,,0.02,Wunderground v.1.15,2013-11-21 12:10:00,
2013-11-21 07:15:00,39.5,35.7,30.18,East,94,1.0,5.0,86,0.00,,,0.02,Wunderground v.1.15,2013-11-21 12:15:00,
2013-11-21 07:20:00,39.5,35.7,30.18,East,86,0.0,5.0,86,0.00,,,0.02,Wunderground v.1.15,2013-11-21 12:20:00,
2013-11-21 07:30:00,39.5,35.7,30.18,East,94,0.0,5.0,86,0.00,,,0.02,Wunderground v.1.15,2013-11-21 12:30:00,
2013-11-21 07:35:00,39.6,35.8,30.17,East,88,0.0,5.0,86,0.00,,,0.02,Wunderground v.1.15,2013-11-21 12:35:00,
2013-11-21 07:40:00,39.6,35.8,30.18,East,93,1.0,5.0,86,0.00,,,0.02,Wunderground v.1.15,2013-11-21 12:40:00,
2013-11-21 07:45:00,39.7,35.9,30.18,ESE,111,1.0,5.0,86,0.00,,,0.02,Wunderground v.1.15,2013-11-21 12:45:00,
2013-11-21 07:50:00,39.8,36.0,30.18,ESE,107,1.0,1.0,86,0.00,,,0.02,Wunderground v.1.15,2013-11-21 12:50:00,
2013-11-21 07:55:00,39.9,35.8,30.18,ESE,116,1.0,5.0,85,0.00,,,0.02,Wunderground v.1.15,2013-11-21 12:55:00,
2013-11-21 08:00:00,40.0,35.9,30.18,ESE,116,0.0,5.0,85,0.00,,,0.02,Wunderground v.1.15,2013-11-21 13:00:00,
2013-11-21 08:10:00,40.1,36.0,30.18,East,96,1.0,1.0,85,0.00,,,0.02,Wunderground v.1.15,2013-11-21 13:10:00,
2013-11-21 08:15:00,40.2,36.1,30.18,East,96,0.0,5.0,85,0.00,,,0.02,Wunderground v.1.15,2013-11-21 13:15:00,
2013-11-21 08:20:00,40.3,36.1,30.19,East,96,0.0,5.0,85,0.00,,,0.02,Wunderground v.1.15,2013-11-21 13:20:00,
2013-11-21 08:30:00,40.4,36.2,30.19,East,96,0.0,5.0,85,0.00,,,0.02,Wunderground v.1.15,2013-11-21 13:30:00,
2013-11-21 08:35:00,40.5,36.3,30.19,East,96,0.0,5.0,85,0.00,,,0.02,Wunderground v.1.15,2013-11-21 13:35:00,
2013-11-21 09:00:00,40.9,36.7,30.19,East,96,0.0,3.0,85,0.00,,,0.02,Wunderground v.1.15,2013-11-21 14:00:00,
2013-11-21 09:10:00,41.2,37.0,30.18,East,96,0.0,3.0,85,0.00,,,0.02,Wunderground v.1.15,2013-11-21 14:10:00,
2013-11-21 09:15:00,41.3,37.1,30.18,East,96,0.0,3.0,85,0.00,,,0.02,Wunderground v.1.15,2013-11-21 14:15:00,
2013-11-21 09:25:00,41.6,37.1,30.18,SSE,168,0.0,3.0,84,0.00,,,0.02,Wunderground v.1.15,2013-11-21 14:25:00,
2013-11-21 09:30:00,41.8,37.0,30.18,SSE,168,0.0,3.0,83,0.00,,,0.02,Wunderground v.1.15,2013-11-21 14:30:00,
2013-11-21 09:35:00,41.9,37.1,30.19,SSE,167,0.0,3.0,83,0.00,,,0.02,Wunderground v.1.15,2013-11-21 14:35:00,
2013-11-21 09:40:00,42.2,37.4,30.19,SSE,167,0.0,3.0,83,0.00,,,0.02,Wunderground v.1.15,2013-11-21 14:40:00,
2013-11-21 09:45:00,42.4,37.6,30.19,SE,134,0.0,3.0,83,0.00,,,0.02,Wunderground v.1.15,2013-11-21 14:45:00,
2013-11-21 09:50:00,42.5,37.7,30.19,SE,132,0.0,3.0,83,0.00,,,0.02,Wunderground v.1.15,2013-11-21 14:50:00,
2013-11-21 10:00:00,42.9,37.8,30.19,SSE,158,1.0,1.0,82,0.00,,,0.02,Wunderground v.1.15,2013-11-21 15:00:00,
2013-11-21 10:10:00,43.2,37.8,30.19,SSE,149,1.0,1.0,81,0.00,,,0.02,Wunderground v.1.15,2013-11-21 15:10:00,
2013-11-21 10:20:00,43.6,37.8,30.19,South,191,1.0,2.0,80,0.00,,,0.02,Wunderground v.1.15,2013-11-21 15:20:00,
2013-11-21 10:25:00,43.8,37.7,30.19,South,180,1.0,2.0,79,0.00,,,0.02,Wunderground v.1.15,2013-11-21 15:25:00,
2013-11-21 10:35:00,44.1,38.0,30.19,South,173,1.0,2.0,79,0.00,,,0.02,Wunderground v.1.15,2013-11-21 15:35:00,
2013-11-21 10:40:00,44.3,37.9,30.19,South,175,1.0,1.0,78,0.00,,,0.02,Wunderground v.1.15,2013-11-21 15:40:00,
2013-11-21 10:45:00,44.5,38.1,30.19,South,180,1.0,2.0,78,0.00,,,0.02,Wunderground v.1.15,2013-11-21 15:45:00,
2013-11-21 10:50:00,44.7,38.3,30.19,South,171,1.0,1.0,78,0.00,,,0.02,Wunderground v.1.15,2013-11-21 15:50:00,
2013-11-21 10:55:00,45.0,38.2,30.19,South,174,1.0,4.0,77,0.00,,,0.02,Wunderground v.1.15,2013-11-21 15:55:00,
2013-11-21 11:00:00,45.3,38.2,30.19,SW,216,2.0,4.0,76,0.00,,,0.02,Wunderground v.1.15,2013-11-21 16:00:00,
2013-11-21 11:10:00,45.8,38.3,30.19,SW,219,2.0,4.0,75,0.00,,,0.02,Wunderground v.1.15,2013-11-21 16:10:00,
2013-11-21 11:15:00,45.9,38.4,30.19,SE,126,2.0,4.0,75,0.00,,,0.02,Wunderground v.1.15,2013-11-21 16:15:00,
2013-11-21 11:25:00,46.2,38.7,30.19,SW,223,1.0,4.0,75,0.00,,,0.02,Wunderground v.1.15,2013-11-21 16:25:00,
2013-11-21 11:30:00,46.3,38.5,30.19,SSE,152,2.0,4.0,74,0.00,,,0.02,Wunderground v.1.15,2013-11-21 16:30:00,
2013-11-21 13:35:00,48.8,41.2,30.16,South,191,1.0,4.0,75,0.00,,,0.02,Wunderground v.1.15,2013-11-21 18:35:00,
2013-11-21 13:40:00,48.9,41.3,30.16,SW,217,1.0,4.0,75,0.00,,,0.02,Wunderground v.1.15,2013-11-21 18:40:00,
2013-11-21 17:25:00,49.2,43.3,30.15,WSW,244,0.0,4.0,80,0.00,,,0.02,Wunderground v.1.15,2013-11-21 22:25:00,